Temperature
-0 -1 -1 -1 -2 -2 -2 -2 -2 -1 -0 0 0 0 0 0 -0 -0 -1 -1 -1 -1 -0 0 1 2 2 3 4 4 5 6 6 7 7 8 9 9
-1 -2 -2 -2 -2 -3 -3 -3 -3 -3 -2 -2 -1 -1 -1 -1 -1 -2 -2 -2 -2 -2 -1 -1 -0 0 1 2 3 3 4 5 6 6 7 8 8 9
-2 -2 -3 -3 -3 -3 -4 -4 -4 -4 -4 -3 -3 -3 -3 -3 -2 -3 -3 -2 -2 -2 -2 -1 -1 -0 0 1 1 2 3 4 5 6 6 7 8 8
-3 -3 -4 -4 -4 -4 -4 -4 -4 -4 -4 -4 -4 -4 -4 -4 -3 -3 -3 -3 -3 -3 -3 -2 -2 -1 -1 -0 1 1 2 3 4 5 6 7 7 8
-4 -4 -5 -5 -5 -5 -5 -5 -5 -5 -5 -5 -5 -5 -5 -4 -4 -4 -4 -4 -3 -3 -3 -3 -2 -2 -1 -1 -0 0 1 2 3 4 5 6 7 7
-5 -5 -5 -6 -6 -6 -6 -6 -6 -6 -6 -6 -6 -5 -5 -5 -5 -5 -4 -4 -4 -4 -4 -3 -3 -2 -2 -1 -1 0 1 2 3 4 5 5 6 7
-6 -6 -6 -7 -7 -7 -7 -7 -7 -6 -6 -6 -6 -6 -6 -5 -5 -5 -5 -5 -5 -4 -4 -4 -3 -2 -2 -1 -1 -0 0 1 2 3 4 5 6 6
-6 -6 -7 -7 -7 -7 -7 -7 -7 -7 -6 -6 -6 -7 -6 -6 -6 -6 -6 -6 -5 -5 -4 -4 -3 -3 -3 -2 -1 -1 -0 0 1 2 3 4 5 6
-7 -7 -7 -7 -7 -7 -7 -7 -7 -7 -7 -7 -7 -7 -7 -7 -7 -7 -7 -6 -6 -5 -5 -5 -4 -3 -3 -2 -2 -1 -1 -0 1 2 3 4 5 5
-8 -8 -8 -7 -8 -8 -8 -7 -7 -7 -7 -8 -8 -8 -8 -8 -7 -7 -7 -7 -6 -6 -5 -5 -4 -4 -3 -3 -2 -1 -0 0 1 2 2 3 4 5
-8 -8 -8 -8 -8 -8 -8 -8 -8 -8 -8 -8 -9 -8 -8 -8 -8 -8 -8 -7 -7 -6 -6 -6 -5 -5 -4 -3 -2 -1 0 1 2 2 3 4 4 5
-8 -8 -8 -8 -8 -8 -8 -9 -9 -9 -9 -9 -9 -9 -9 -9 -9 -8 -8 -8 -7 -7 -6 -6 -6 -6 -5 -3 -1 -0 0 1 2 3 3 4 4 5
-8 -8 -8 -8 -9 -9 -9 -9 -10 -10 -9 -10 -10 -10 -10 -9 -9 -9 -9 -8 -8 -8 -7 -7 -7 -7 -6 -5 -3 -1 -0 1 2 3 3 4 4 5
-9 -9 -9 -9 -9 -9 -10 -10 -10 -10 -10 -10 -10 -10 -10 -10 -10 -9 -9 -8 -8 -8 -8 -7 -8 -7 -7 -6 -4 -2 -0 1 2 3 3 3 4 4
-9 -9 -9 -9 -10 -10 -10 -11 -11 -11 -11 -11 -10 -10 -10 -10 -10 -9 -9 -8 -8 -8 -8 -8 -8 -8 -7 -6 -5 -3 -1 0 1 2 2 2 2 2
-9 -9 -9 -10 -10 -11 -11 -11 -11 -11 -11 -11 -11 -11 -11 -10 -10 -9 -9 -8 -8 -8 -8 -8 -8 -8 -7 -6 -5 -3 -1 -0 0 1 1 0 0 0
-10 -10 -10 -10 -11 -11 -11 -11 -11 -11 -11 -11 -11 -11 -11 -10 -9 -9 -8 -8 -8 -8 -8 -8 -8 -8 -7 -7 -6 -4 -2 -1 -1 -0 -0 -1 -1 -1
-10 -11 -11 -11 -11 -12 -12 -12 -12 -12 -12 -12 -11 -11 -10 -10 -9 -8 -8 -8 -9 -8 -8 -7 -7 -7 -7 -7 -7 -6 -4 -2 -2 -2 -2 -2 -3 -3
-11 -11 -12 -12 -12 -12 -12 -12 -12 -12 -12 -12 -11 -11 -10 -10 -9 -9 -8 -8 -8 -8 -8 -7 -6 -6 -7 -7 -7 -6 -5 -4 -3 -3 -4 -4 -4 -4
-12 -12 -12 -12 -12 -12 -12 -12 -12 -12 -12 -11 -11 -10 -10 -9 -9 -9 -8 -8 -8 -7 -7 -7 -6 -6 -6 -8 -7 -7 -5 -5 -4 -4 -4 -4 -5 -5
-12 -12 -13 -13 -13 -13 -13 -12 -12 -12 -11 -11 -10 -10 -10 -9 -9 -8 -8 -8 -7 -7 -7 -6 -6 -6 -6 -6 -7 -6 -6 -5 -4 -4 -5 -5 -5 -6
-13 -13 -13 -13 -13 -13 -13 -12 -12 -11 -10 -10 -10 -10 -9 -9 -8 -8 -8 -7 -7 -7 -7 -6 -6 -6 -5 -6 -7 -7 -7 -6 -5 -5 -5 -5 -5 -6
-13 -13 -13 -13 -13 -13 -12 -12 -11 -10 -10 -10 -10 -9 -9 -8 -8 -7 -7 -7 -7 -7 -6 -6 -6 -6 -6 -6 -7 -7 -7 -7 -7 -6 -6 -5 -5 -5
Wind_Speed
13 14 12 12 12 13 14 14 17 22 24 26 22 21 18 18 20 21 23 29 34 36 37 37 36 35 34 34 33 32 32 32 32 33 33 33 33 35
12 15 15 13 14 14 14 15 15 18 22 23 23 24 23 20 25 25 25 32 34 35 35 35 35 35 34 33 33 32 31 30 30 32 32 33 32 31
15 16 17 18 15 15 15 15 16 16 20 22 22 23 28 27 24 23 23 23 23 31 33 34 35 36 35 34 33 32 31 30 29 29 30 30 30 30
18 18 19 16 19 17 16 17 17 18 19 23 23 23 28 27 26 25 23 21 22 29 33 34 35 35 35 34 32 30 29 27 26 26 27 28 28 28
18 19 19 19 20 17 19 18 17 17 18 20 23 22 22 23 25 25 25 22 22 23 28 30 31 33 33 33 32 31 28 27 26 24 24 25 26 27
19 19 19 19 20 21 19 20 19 20 21 20 20 21 22 24 22 22 22 21 20 20 23 25 29 32 33 33 32 29 27 27 27 25 23 21 21 23
19 19 19 20 23 21 19 21 21 20 20 20 21 21 22 22 22 21 22 22 22 20 19 19 19 18 20 23 24 23 24 25 25 24 23 22 20 21
20 20 19 20 22 27 28 28 28 25 23 22 21 23 26 25 22 21 22 22 23 19 17 19 18 19 19 18 24 27 26 26 26 25 25 23 21 20
19 19 18 19 24 22 26 30 29 30 30 24 25 26 26 25 25 26 24 24 24 20 19 21 19 19 19 20 29 30 29 28 27 27 25 24 22 22
19 20 21 22 22 25 26 27 26 26 27 23 22 25 25 26 26 25 25 24 23 19 17 19 19 18 18 18 26 30 30 29 27 26 26 24 22 21
19 20 22 23 27 32 28 28 28 26 26 29 32 32 35 34 28 20 20 19 20 18 14 16 18 18 17 17 20 26 26 26 26 26 25 24 21 20
19 20 23 25 30 34 28 27 27 26 25 27 27 26 25 25 28 20 17 18 19 19 15 14 16 13 11 11 10 9 11 16 21 23 23 20 16 10
19 19 19 29 33 35 32 24 27 29 25 23 21 21 20 18 18 18 18 17 18 19 16 13 13 13 11 11 11 9 9 9 8 8 9 12 13 12
20 19 21 33 35 34 27 27 33 29 19 18 19 19 18 18 18 20 21 21 19 21 18 14 11 13 13 14 10 7 6 5 2 3 5 12 14 19
19 26 31 33 30 24 26 31 27 18 18 18 19 19 18 19 20 19 19 18 17 15 11 9 10 11 12 11 8 6 4 4 3 9 11 11 12 13
20 24 28 27 23 24 23 20 17 18 19 18 18 18 18 17 18 17 15 14 11 9 5 6 8 9 7 6 5 3 3 2 5 11 13 13 12 12
23 18 17 17 17 18 18 18 18 18 18 18 18 18 18 18 16 14 12 11 9 8 8 7 7 5 7 8 3 4 4 4 7 11 13 14 12 12
22 16 16 17 18 19 19 19 19 18 18 18 18 17 17 17 15 13 11 10 9 8 8 8 7 4 1 8 16 7 7 8 9 12 14 15 13 11
16 15 16 17 18 18 18 19 19 19 18 17 17 17 16 15 13 12 11 10 9 8 8 8 8 6 5 6 10 17 9 9 12 13 13 13 12 10
14 15 16 17 17 18 18 18 18 18 17 17 17 16 14 13 13 12 11 11 10 8 7 7 8 8 6 5 5 9 15 10 11 13 13 12 11 13
15 15 16 17 17 18 18 18 18 18 18 17 16 15 14 13 12 11 10 13 10 7 7 7 6 7 4 2 6 7 11 15 12 10 11 12 9 8
15 16 16 17 17 17 17 17 17 17 18 16 15 14 13 12 12 12 10 9 8 7 7 5 5 4 3 6 8 9 10 12 16 20 17 10 6 6
16 16 17 17 17 16 16 18 20 17 16 15 14 13 13 11 10 9 9 8 7 7 6 5 5 6 7 7 9 9 11 10 10 11 11 13 13 14
Wind_Direction
311 308 303 301 299 297 296 294 296 300 300 302 304 303 303 299 298 298 296 296 297 295 292 290 288 287 287 286 284 282 280 276 273 272 271 266 257 247
308 304 303 301 301 298 294 293 290 288 291 296 300 302 303 298 297 296 293 292 289 288 287 287 287 286 286 285 284 282 280 277 273 269 267 264 259 254
308 305 304 303 301 299 298 294 290 288 288 292 295 299 301 300 298 297 294 292 289 286 287 287 287 286 285 283 282 281 279 277 274 271 267 264 259 253
308 307 306 306 303 302 299 297 295 292 291 294 296 298 298 300 299 298 296 293 289 288 287 285 283 283 282 281 280 280 279 278 276 273 269 265 260 255
308 307 307 307 304 304 303 300 298 298 296 295 295 297 296 297 300 298 295 293 291 289 289 286 285 283 282 281 280 279 278 276 275 273 269 265 261 256
307 306 306 306 306 306 304 303 304 302 299 296 295 297 297 298 298 298 298 296 294 293 290 287 285 283 280 278 276 274 273 272 272 270 266 261 256 254
308 308 307 306 303 302 303 305 305 302 300 299 299 300 299 300 300 300 297 297 293 291 290 286 285 282 282 279 275 269 267 267 267 268 267 264 257 250
310 310 309 306 307 307 306 305 303 301 302 302 301 300 299 299 300 298 297 295 294 294 292 289 288 285 282 279 277 277 274 271 269 267 265 262 258 253
310 310 310 309 311 309 309 308 306 302 301 301 299 298 298 299 298 296 293 291 289 290 293 288 285 282 281 277 277 274 271 267 265 263 260 257 255 252
309 309 308 309 311 313 312 311 309 307 304 302 298 297 295 295 294 293 293 292 288 286 285 287 290 287 286 281 278 274 270 266 262 259 258 255 251 247
311 309 309 309 311 315 315 313 312 310 309 306 302 299 298 299 298 297 294 293 293 294 294 290 292 293 289 284 277 272 269 265 261 259 256 253 248 243
312 311 310 311 313 317 318 316 313 313 313 311 308 306 303 300 299 295 294 293 294 295 297 294 293 301 296 286 284 287 281 272 265 259 254 246 228 219
314 314 314 315 316 318 319 315 312 314 312 310 309 307 306 304 303 300 295 291 290 289 294 294 289 287 279 287 294 289 285 279 271 251 228 204 187 171
313 313 314 316 318 320 319 315 316 317 313 311 309 309 310 309 306 302 296 290 283 281 286 285 280 281 282 284 286 294 298 289 253 126 115 119 123 126
311 312 315 317 320 319 316 318 319 317 315 313 312 311 310 306 305 302 299 295 290 285 280 280 283 281 272 272 276 293 307 336 83 105 100 97 99 104
315 316 318 318 319 318 319 319 319 316 315 313 312 310 310 309 309 309 309 312 311 314 306 299 303 306 286 280 280 296 315 343 78 99 98 92 89 93
321 320 321 322 322 322 321 321 320 319 319 317 315 314 314 314 315 318 318 324 327 332 333 331 320 325 22 23 25 33 43 68 92 101 99 93 84 88
325 321 321 321 321 321 321 320 320 320 320 319 317 316 317 318 321 326 333 336 338 340 342 340 332 309 249 49 30 39 54 71 85 93 102 103 94 89
323 320 319 319 319 319 318 317 318 318 318 318 318 318 319 321 326 333 339 341 341 342 348 352 354 353 34 52 28 23 47 77 87 87 91 99 101 102
322 319 319 318 318 317 317 317 317 318 319 319 319 319 322 325 330 334 337 340 339 340 347 3 12 12 25 35 45 30 33 62 89 93 94 90 85 95
321 319 318 317 316 316 315 316 316 317 317 319 318 320 324 327 328 330 331 335 340 342 348 356 352 334 303 13 77 52 44 54 73 93 105 103 100 102
319 319 318 316 316 315 315 316 317 317 318 318 319 321 324 325 324 325 328 330 335 338 338 349 0 6 34 81 87 84 76 75 73 73 70 78 111 130
318 318 316 316 315 315 316 317 317 316 316 317 319 323 324 322 322 322 324 326 331 341 349 10 37 55 68 84 93 95 94 91 89 82 71 65 78 99
Height
1423 1418 1413 1408 1403 1398 1393 1387 1380 1366 1352 1345 1343 1341 1337 1332 1326 1320 1314 1307 1302 1297 1291 1286 1282 1279 1276 1274 1273 1271 1270 1269 1269 1269 1269 1270 1272 1276
1417 1412 1407 1402 1396 1391 1385 1380 1374 1366 1352 1341 1335 1330 1326 1321 1317 1311 1304 1297 1290 1285 1280 1275 1271 1267 1264 1262 1260 1259 1258 1257 1257 1258 1258 1259 1261 1263
1411 1406 1400 1395 1389 1384 1378 1372 1366 1360 1349 1337 1330 1323 1316 1310 1305 1300 1294 1287 1279 1274 1269 1264 1259 1255 1251 1249 1247 1246 1246 1246 1246 1246 1246 1248 1250 1253
1404 1399 1393 1388 1382 1376 1370 1364 1358 1352 1344 1332 1323 1316 1308 1301 1295 1289 1283 1276 1270 1263 1257 1252 1247 1242 1239 1236 1235 1234 1233 1233 1234 1234 1236 1237 1239 1241
1398 1392 1386 1380 1374 1368 1363 1356 1350 1343 1336 1327 1316 1309 1300 1293 1286 1279 1272 1266 1259 1253 1246 1241 1236 1231 1228 1225 1223 1222 1221 1221 1222 1223 1224 1226 1228 1231
1391 1385 1379 1373 1367 1361 1355 1349 1342 1335 1328 1319 1310 1301 1293 1285 1279 1271 1262 1255 1249 1243 1236 1231 1225 1220 1216 1213 1211 1210 1209 1209 1210 1212 1213 1215 1217 1220
1383 1377 1372 1366 1360 1354 1349 1342 1335 1327 1320 1311 1302 1294 1285 1278 1271 1264 1255 1246 1238 1233 1227 1220 1216 1210 1206 1203 1201 1199 1198 1198 1199 1200 1202 1204 1206 1209
1375 1369 1363 1358 1352 1347 1341 1335 1329 1321 1312 1304 1295 1287 1278 1271 1264 1256 1248 1239 1227 1222 1219 1210 1207 1200 1196 1193 1190 1188 1188 1187 1188 1189 1190 1193 1195 1198
1369 1362 1356 1351 1345 1339 1332 1326 1319 1313 1307 1300 1289 1279 1271 1263 1256 1247 1239 1230 1220 1213 1210 1198 1194 1189 1184 1181 1178 1176 1176 1175 1176 1177 1179 1181 1185 1188
1364 1357 1351 1344 1338 1332 1324 1315 1308 1302 1297 1289 1281 1271 1263 1255 1248 1239 1229 1219 1209 1205 1202 1191 1184 1179 1174 1169 1166 1164 1164 1164 1165 1166 1168 1171 1174 1177
1357 1351 1345 1338 1332 1325 1317 1307 1298 1291 1284 1278 1270 1262 1253 1245 1238 1229 1220 1212 1200 1195 1194 1187 1177 1171 1164 1159 1155 1153 1153 1153 1154 1155 1157 1160 1163 1167
1350 1344 1338 1332 1325 1318 1310 1301 1290 1281 1273 1264 1257 1249 1242 1234 1228 1222 1213 1205 1195 1186 1184 1180 1172 1167 1157 1151 1148 1146 1144 1144 1144 1145 1147 1150 1154 1159
1343 1337 1331 1325 1318 1311 1303 1295 1285 1276 1267 1257 1248 1240 1232 1225 1218 1212 1205 1198 1189 1179 1176 1172 1165 1161 1157 1148 1143 1141 1138 1137 1137 1138 1140 1143 1147 1152
1339 1331 1324 1318 1311 1303 1295 1287 1279 1270 1261 1251 1242 1234 1225 1217 1209 1201 1194 1187 1181 1173 1167 1164 1159 1154 1150 1146 1141 1137 1135 1133 1133 1134 1136 1140 1145 1149
1334 1326 1319 1311 1304 1295 1288 1281 1273 1264 1256 1247 1238 1228 1220 1210 1201 1192 1185 1178 1171 1165 1160 1156 1152 1147 1144 1142 1138 1136 1134 1133 1132 1133 1137 1141 1146 1150
1328 1320 1313 1306 1298 1291 1283 1275 1268 1260 1253 1243 1233 1223 1214 1204 1196 1188 1179 1172 1166 1160 1156 1151 1147 1143 1139 1137 1135 1134 1134 1134 1135 1136 1140 1146 1152 1157
1323 1315 1308 1300 1293 1285 1278 1270 1263 1255 1247 1238 1229 1219 1210 1201 1192 1185 1178 1171 1166 1160 1155 1151 1146 1143 1139 1136 1135 1134 1135 1136 1139 1141 1145 1152 1159 1165
1319 1311 1304 1297 1290 1282 1274 1265 1258 1250 1242 1233 1225 1216 1208 1199 1192 1185 1179 1173 1167 1161 1156 1151 1148 1145 1143 1139 1138 1137 1137 1140 1144 1147 1151 1157 1166 1173
1316 1309 1302 1295 1287 1280 1272 1263 1254 1246 1238 1230 1222 1214 1207 1200 1193 1186 1180 1174 1169 1164 1159 1154 1150 1147 1146 1144 1145 1144 1144 1146 1149 1154 1159 1165 1172 1180
1312 1306 1299 1292 1284 1277 1268 1260 1251 1242 1234 1227 1220 1213 1207 1200 1194 1188 1182 1177 1172 1167 1163 1159 1155 1152 1150 1152 1151 1152 1153 1154 1156 1160 1166 1172 1179 1186
1309 1302 1296 1289 1281 1273 1265 1257 1248 1240 1232 1225 1218 1212 1206 1201 1194 1189 1184 1179 1174 1170 1167 1164 1161 1159 1158 1158 1158 1160 1162 1164 1166 1169 1174 1179 1184 1191
1305 1299 1292 1285 1277 1269 1261 1253 1245 1237 1230 1224 1218 1212 1206 1201 1195 1190 1185 1180 1177 1173 1170 1168 1166 1164 1163 1164 1164 1166 1168 1171 1174 1178 1182 1186 1189 1195
1302 1295 1288 1280 1273 1266 1258 1250 1243 1236 1230 1223 1217 1211 1206 1200 1195 1191 1186 1183 1179 1176 1174 1171 1170 1169 1169 1169 1170 1172 1175 1177 1180 1183 1187 1191 1195 1199